Wetbulb
62.34 62.24 61.82 61.29 60.94 60.82 59.47 58.46 59.48 58.98 58.81 57.32 55.50 56.13 57.02 56.00 55.27 54.14 52.59 50.07 47.25 49.10
61.91 61.98 61.73 61.57 61.49 61.04 60.67 59.15 59.51 59.13 58.29 57.70 56.05 55.61 56.26 55.55 54.67 54.06 53.25 51.49 50.13 49.31
61.58 61.92 62.61 62.15 60.44 60.27 60.02 59.92 58.94 58.42 57.92 57.65 56.47 54.80 54.75 54.77 54.65 53.60 53.01 52.13 49.26 47.14
61.10 61.41 61.47 61.39 60.59 59.82 60.17 59.84 58.26 57.40 57.15 56.83 55.20 54.01 52.96 53.27 53.18 52.48 52.37 50.29 49.09 46.26
60.69 61.11 60.71 60.67 59.96 59.94 59.50 58.89 57.87 57.27 56.38 55.68 54.66 53.47 51.68 51.25 50.78 50.42 49.50 48.15 46.11 44.79
59.49 59.91 60.12 59.87 59.73 59.30 59.13 58.27 57.46 56.88 55.43 53.94 53.12 52.24 51.30 51.14 50.49 47.76 48.12 46.76 44.25 43.83
58.02 58.86 59.00 59.41 59.26 58.70 58.30 57.42 55.78 55.55 54.39 53.54 52.61 51.74 50.49 49.42 49.38 46.15 45.09 43.62 43.47 40.56
57.06 58.24 58.50 58.62 58.63 57.09 56.39 56.65 55.72 54.37 53.00 52.72 51.52 50.25 49.28 47.04 45.25 42.61 41.97 39.11 39.79 38.56
47.32 47.71 50.04 54.45 56.11 55.09 54.57 54.30 53.91 52.09 51.16 50.71 49.72 45.52 43.25 43.58 42.45 39.81 38.33 37.03 37.40 36.76
42.56 43.09 42.43 42.94 44.89 45.30 47.32 47.68 48.29 48.18 48.40 47.69 47.48 42.16 41.83 40.34 40.02 38.37 38.67 38.15 36.08 34.11
37.24 38.67 38.94 39.59 40.00 41.18 41.47 42.43 42.25 41.78 41.92 41.81 41.95 41.38 41.16 38.64 38.93 38.11 37.50 37.52 36.23 35.35
34.12 35.84 37.48 37.94 38.63 38.85 37.99 38.10 38.29 37.54 37.70 37.45 38.06 39.99 40.03 38.30 35.73 35.44 35.24 35.27 35.38 34.90
33.58 34.89 36.07 37.00 37.35 36.85 36.55 35.64 35.58 35.57 36.17 34.96 37.04 38.53 39.33 38.51 34.99 34.25 33.70 33.22 32.96 32.61
32.60 33.05 34.64 35.51 36.19 35.66 35.77 35.14 34.92 33.87 33.51 34.14 34.84 36.21 38.91 38.58 34.58 34.24 32.79 32.11 31.16 31.88
MSLP
1012.43 1012.78 1013.20 1014.01 1014.47 1015.00 1015.62 1016.28 1016.92 1017.61 1018.22 1018.79 1019.42 1019.88 1020.24 1020.75 1021.11 1021.58 1022.14 1022.60 1022.96 1023.09
1011.65 1011.90 1011.93 1012.77 1013.54 1014.01 1014.56 1015.20 1015.92 1016.50 1017.26 1017.60 1018.34 1018.90 1019.31 1019.80 1020.13 1020.71 1021.25 1021.49 1022.08 1022.43
1010.38 1011.02 1011.22 1011.94 1012.25 1012.81 1013.59 1014.40 1014.93 1015.44 1016.15 1016.57 1017.14 1017.86 1018.39 1018.85 1019.29 1019.75 1020.20 1020.69 1021.23 1021.72
1009.76 1010.28 1010.99 1011.28 1011.63 1011.98 1012.62 1013.21 1013.89 1014.31 1015.02 1015.47 1016.06 1016.83 1017.40 1017.76 1018.28 1018.62 1018.97 1019.63 1020.17 1020.93
1009.37 1009.75 1010.17 1010.33 1010.77 1011.33 1011.79 1012.52 1012.98 1013.50 1014.07 1014.51 1014.99 1015.58 1016.09 1016.48 1016.82 1017.30 1017.92 1018.47 1019.41 1020.03
1008.91 1009.18 1009.42 1009.85 1010.51 1010.92 1011.13 1011.71 1012.37 1012.81 1013.16 1013.48 1013.87 1014.42 1014.79 1015.17 1015.61 1015.96 1016.37 1017.24 1017.92 1018.61
1008.72 1008.90 1009.13 1009.55 1009.97 1010.30 1010.58 1011.09 1011.59 1011.92 1012.27 1012.61 1013.06 1013.41 1013.73 1014.11 1014.59 1015.34 1015.95 1016.10 1016.68 1017.45
1009.02 1008.87 1008.96 1009.25 1009.51 1009.83 1010.21 1010.59 1010.73 1011.07 1011.64 1012.12 1012.32 1012.56 1013.30 1013.73 1013.83 1014.54 1015.35 1015.87 1016.53 1016.25
1010.09 1009.82 1009.57 1009.24 1009.01 1009.15 1009.58 1010.00 1010.18 1010.25 1010.76 1011.26 1011.61 1011.60 1011.86 1012.57 1013.09 1013.32 1014.22 1015.07 1015.60 1016.97
1011.27 1010.78 1010.52 1010.42 1010.16 1009.95 1010.04 1010.05 1009.91 1009.96 1010.30 1010.62 1010.90 1011.05 1011.28 1011.84 1012.55 1012.77 1013.18 1013.87 1014.54 1015.63
1012.70 1012.06 1011.27 1010.80 1010.79 1010.83 1010.85 1010.85 1010.62 1010.62 1010.46 1010.53 1010.51 1010.83 1010.89 1011.64 1011.93 1012.36 1012.77 1013.92 1014.05 1014.39
1013.26 1012.75 1012.02 1011.09 1011.09 1011.16 1011.36 1011.43 1011.23 1010.96 1010.74 1010.64 1011.16 1010.98 1010.96 1011.21 1011.79 1012.44 1013.26 1013.26 1014.26 1014.49
1013.84 1013.29 1012.37 1011.27 1011.28 1011.54 1011.68 1011.37 1011.49 1011.03 1010.86 1010.01 1010.44 1010.38 1010.93 1010.70 1011.95 1012.33 1012.57 1013.67 1013.69 1014.41
1014.70 1014.11 1013.50 1012.68 1011.97 1011.96 1011.62 1011.71 1011.27 1011.27 1010.85 1010.35 1011.09 1010.72 1010.61 1010.91 1011.67 1012.12 1013.19 1013.04 1013.25 1014.02
Wind_Speed
21 14 15 17 13 12 12 13 17 16 15 15 13 13 13 11 12 13 12 14 11 9
18 20 18 19 16 12 13 11 15 17 17 17 16 15 15 11 13 13 13 14 13 11
19 19 18 16 17 17 14 15 16 17 17 17 17 16 16 13 13 14 11 11 13 11
17 17 16 15 16 17 16 17 17 17 17 17 17 16 16 16 15 17 16 12 13 13
15 16 16 18 17 16 17 15 16 16 16 16 16 17 18 19 17 18 17 15 14 14
14 15 17 17 15 14 15 15 15 15 15 16 16 17 18 18 18 18 18 16 16 15
11 14 14 14 14 14 14 14 15 15 16 15 16 16 17 17 16 15 14 14 16 14
5 10 12 12 12 12 12 14 14 13 13 14 13 11 14 13 12 13 13 12 11 12
8 8 7 5 10 11 12 13 12 12 13 14 11 14 17 17 15 15 15 13 11 9
9 8 6 6 6 6 4 4 5 6 8 11 11 12 17 17 8 10 13 13 13 10
10 8 6 6 6 5 4 4 4 5 7 5 6 13 18 19 8 8 7 10 13 15
10 10 8 6 6 5 4 5 4 4 4 5 6 11 18 14 7 8 10 8 10 11
10 9 11 10 9 4 3 5 4 6 6 4 7 10 14 15 5 7 6 7 8 11
9 8 6 6 5 5 6 6 5 5 2 1 6 7 15 18 8 6 7 7 7 8
Wind_Direction
207 208 206 207 202 203 200 199 197 202 203 201 198 202 203 204 209 206 210 208 201 209
211 212 208 210 206 205 203 199 197 198 203 201 201 202 202 208 208 205 209 211 211 210
210 215 214 207 203 204 203 200 197 196 204 203 203 202 203 209 209 207 210 211 207 203
215 213 216 214 209 207 204 202 201 199 202 205 203 203 203 210 208 209 212 205 202 203
215 213 213 216 210 208 209 205 206 204 206 207 206 204 205 209 208 209 209 199 195 199
214 215 216 219 217 213 210 209 212 209 209 208 208 207 211 214 210 209 208 200 196 196
212 215 217 221 215 213 213 210 207 210 214 213 214 214 212 212 214 211 214 199 199 180
258 223 216 218 215 210 211 220 215 212 218 221 215 214 217 213 201 197 203 196 195 177
15 22 358 287 223 208 211 216 216 210 212 216 220 208 195 194 199 191 187 190 186 205
2 13 8 358 355 351 317 309 253 236 223 225 224 203 201 198 198 190 191 192 180 176
349 344 350 9 358 343 332 288 241 224 213 211 223 200 200 189 185 183 199 198 186 177
345 337 333 0 357 349 324 303 286 293 241 216 243 211 195 172 178 184 193 175 182 173
338 337 338 349 345 334 277 293 286 287 258 221 251 214 205 175 171 187 168 171 154 167
336 331 322 324 330 314 309 287 265 257 261 235 236 216 192 183 175 176 184 171 163 176